Location: Martinez
(33.5170°N, 82.0760°W)
Time: 04:46:12
(UTC-04:00)

HST - Visible Passes

Search period start: 20 August 2014 00:00
Search period end: 30 August 2014 00:00
Orbit: 548 x 551 km, 28.5° (Epoch: 19 August)

Date Brightness Start Highest point End Pass type
(mag) Time Alt. Az. Time Alt. Az. Time Alt. Az.
20 Aug 2.0 06:08:33 12° SW 06:11:57 30° SSE 06:15:39 10° ESE visible
21 Aug 3.6 04:26:28 11° ESE 04:26:28 11° ESE 04:26:38 10° ESE visible
21 Aug 1.8 06:02:02 15° SW 06:04:59 34° S 06:08:49 10° ESE visible
22 Aug 3.6 04:19:57 11° ESE 04:19:57 11° ESE 04:20:06 10° ESE visible
22 Aug 1.6 05:55:31 19° SW 05:58:03 38° S 06:01:57 10° ESE visible
23 Aug 3.7 04:13:26 10° ESE 04:13:26 10° ESE 04:13:26 10° ESE visible
23 Aug 1.5 05:49:00 23° SW 05:51:06 40° S 05:55:03 10° ESE visible
24 Aug 1.4 05:42:30 28° SW 05:44:10 41° S 05:48:08 10° ESE visible
25 Aug 1.4 05:36:03 33° SW 05:37:13 41° S 05:41:11 10° ESE visible
26 Aug 1.4 05:29:38 37° SSW 05:30:17 40° S 05:34:13 10° ESE visible
27 Aug 1.5 05:23:18 37° S 05:23:20 37° S 05:27:12 10° ESE visible
28 Aug 1.9 05:17:04 31° S 05:17:04 31° S 05:20:09 10° SE visible
29 Aug 2.4 05:10:55 23° SSE 05:10:55 23° SSE 05:13:03 10° SE visible
